Regional Weather Roundup
Issued by NWS

Home | Current Version | Previous Version | Graphics & Text | Print | Product List | Glossary On
Versions: 1 2 3 4 5 6 7 8 9 10 11 12 13 14 15 16 17 18 19 20 21 22 23 24 25 26 27 28 29 30 31 32 33 34 35 36 37 38 39 40 41 42 43 44 45 46 47 48 49 50
000
ASUS43 KOAX 292202
RWRNE

WEATHER ROUNDUP FOR NEBRASKA
NATIONAL WEATHER SERVICE OMAHA NE
500 PM CDT FRI APR 29 2016

NOTES: SATELLITE DATA IS BEING USED TO AUGMENT CLOUD COVER ABOVE
       12000 FEET.
       "FAIR" INDICATES FEW OR NO CLOUDS BELOW 12,000 FEET WITH NO
       SIGNIFICANT WEATHER AND/OR OBSTRUCTIONS TO VISIBILITY.

  * THESE STATIONS DO NOT REPORT WEATHER SUCH AS RAIN...SNOW OR FOG.

NEZ001>004-019>022-054>056-292300-
NEBRASKA PANHANDLE

CITY           SKY/WX    TMP DP  RH WIND       PRES   REMARKS
SCOTTSBLUFF    LGT RAIN  40  36  86 E13       29.96F FOG     WCI  32
ALLIANCE       LGT RAIN  39  35  86 NE15      29.95F WCI  31
CHADRON        CLOUDY    43  36  76 NE13      29.99F
KIMBALL        LGT SNOW  33  33 100 CALM      29.94F VSB 1
SIDNEY         LGT SNOW  35  33  92 NE8       29.94F FOG     WCI  29
$$

NEZ057>060-069>072-079>082-292300-
SOUTHWEST NEBRASKA

CITY           SKY/WX    TMP DP  RH WIND       PRES   REMARKS
NORTH PLATTE   CLOUDY    42  37  82 NE13      29.93R
IMPERIAL       LGT RAIN  40  37  89 NE15      29.91S WCI  32
LEXINGTON      CLOUDY    43  38  83 E15G24    29.92R
MCCOOK         CLOUDY    43  37  79 NE21G28   29.87F
$$

NEZ005>010-023>029-035>040-094-292300-
NORTH CENTRAL NEBRASKA

CITY           SKY/WX    TMP DP  RH WIND       PRES   REMARKS
VALENTINE      CLOUDY    42  37  82 NE14      30.00F
AINSWORTH      CLOUDY    41  37  88 NE13      30.00F
BROKEN BOW     CLOUDY    42  39  89 NE17G25   29.93F
O`NEILL        CLOUDY    44  40  87 NE15      30.02F
ORD            CLOUDY    44  38  79 NE15      29.96F
$$

NEZ041-046>049-061>064-073>077-083>087-292300-
SOUTH CENTRAL NEBRASKA

CITY           SKY/WX    TMP DP  RH WIND       PRES   REMARKS
GRAND ISLAND   CLOUDY    44  39  82 NE18      29.95F
AURORA         CLOUDY    44  41  88 E21G26    29.95F
HASTINGS       CLOUDY    44  40  85 NE23G30   29.89F
KEARNEY *      CLOUDY    45  37  76 E26G36    29.88F
YORK           CLOUDY    45  41  87 E16       29.99F
$$

NEZ011>018-030>034-042>045-292300-
NORTHEAST NEBRASKA

CITY           SKY/WX    TMP DP  RH WIND       PRES   REMARKS
NORFOLK        CLOUDY    45  39  79 E13       30.02F
ALBION         CLOUDY    45  38  78 E13       30.00F
BLAIR          CLOUDY    47  43  86 NE13      30.03F
COLUMBUS *     CLOUDY    45  36  70 E13       30.02F
FREMONT        CLOUDY    46  41  82 E9        30.04F
TEKAMAH        CLOUDY    49  43  80 NE9       30.05F
$$

NEZ050>053-065>068-078-088>093-292300-
SOUTHEAST NEBRASKA

CITY           SKY/WX    TMP DP  RH WIND       PRES   REMARKS
LINCOLN        CLOUDY    48  41  76 NE12      30.02F
OMAHA EPPLEY   CLOUDY    48  42  80 NE13      30.04S
BEATRICE       DRIZZLE   47  43  87 NE8       29.98F
FALLS CITY     LGT RAIN  52  47  83 NE7       29.99R
NEBRASKA CITY  DRIZZLE   49  45  84 NE9       30.01F
$$

NEZ044-045-051>053-067-292300-
OMAHA AREA

CITY           SKY/WX    TMP DP  RH WIND       PRES   REMARKS
OMAHA EPPLEY   CLOUDY    48  42  80 NE13      30.04S
BLAIR          CLOUDY    47  43  86 NE13      30.03F
FREMONT        CLOUDY    46  41  82 E9        30.04F
WAHOO          CLOUDY    47  42  82 NE13      30.02F
$$




USA.gov is the U.S. government's official web portal to all federal, state and local government web resources and services.